Overview Statistics Trail Chart Weather Telemetry Raw packets
 

This is the latest recevied weather packets stored in our database for station/object F5OZP-13. If no packets are shown the sender has not sent any weather packets the latest 10 day(s).

<< 19 20 21 22 23 24 25 >>
Time Temp. Humidity Pressure Rain* Wind** Luminosity Snow
1788257883 26.67° C 99% - - - 23 W/m² -
1788257583 26.67° C 99% - - - 0 W/m² -
1788257266 26.11° C 99% - - - 0 W/m² -
1788256958 27.22° C 99% - - - 1 W/m² -
1788256650 26.67° C 99% - - - 0 W/m² -
1788256342 26.11° C 99% - - - 0 W/m² -
1788256034 25.56° C 99% - - - 0 W/m² -
1788255734 25.56° C 99% - - - 0 W/m² -
1788255417 25.56° C 99% - - - 0 W/m² -
1788255109 25.56° C 99% - - - 0 W/m² -
1788254801 25° C 99% - - - 0 W/m² -
1788254493 24.44° C 99% - - - 0 W/m² -
1788254185 25° C 99% - - - 0 W/m² -
1788253885 24.44° C 99% - - - 0 W/m² -
1788253568 24.44° C 99% - - - 0 W/m² -
1788253260 24.44° C 99% - - - 0 W/m² -
1788252952 23.89° C 99% - - - 0 W/m² -
1788252644 23.89° C 99% - - - 0 W/m² -
1788252336 23.89° C 99% - - - 0 W/m² -
1788252036 24.44° C 99% - - - 0 W/m² -
1788251725 23.89° C 99% - - - 0 W/m² -
1788251412 23.89° C 99% - - - 0 W/m² -
1788251103 24.44° C 99% - - - 0 W/m² -
1788250796 23.33° C 99% - - - 5 W/m² -
1788250487 21.67° C 99% - - - 1 W/m² -

* Rain since midnight (hover to see other rain measurements)
** Current wind speed in m/s (hover to see current wind gust speed)